Wind_Speed
25 23 23 22 22 22 22 22 22 21 20 20 20 19 19 19 19 19 19 20 20 19 19 19 19 20 21 21 22 22 23 24 24 24 25 26 27 28 28 28 28 27 27
23 21 21 21 21 20 20 19 19 19 19 19 18 17 17 17 17 17 17 17 17 16 16 16 16 17 18 19 20 21 21 21 22 22 22 23 24 25 25 26 26 26 26
21 19 20 19 18 18 18 18 18 18 18 17 16 16 16 16 16 15 14 15 15 14 13 13 14 15 16 17 17 18 18 19 19 19 20 21 21 22 22 22 22 23 24
18 17 16 16 15 16 16 16 16 16 16 15 15 16 15 14 14 14 14 14 13 13 13 13 14 13 14 15 14 14 15 16 16 17 17 18 19 19 18 18 19 20 21
15 14 14 14 14 14 14 14 14 14 14 14 14 14 13 13 13 13 13 12 11 11 12 12 12 12 12 12 12 12 13 13 13 14 14 15 17 17 17 17 17 18 18
12 12 12 12 12 12 12 13 12 12 12 12 12 12 11 11 12 11 10 10 10 10 9 9 9 9 10 10 10 10 10 11 11 11 11 12 13 14 14 15 16 16 16
11 11 11 11 10 11 11 11 11 11 11 11 11 11 10 10 10 10 9 9 8 7 6 6 6 6 6 6 6 7 7 7 8 10 9 9 9 11 11 12 12 14 15
10 10 10 10 10 10 10 10 10 10 10 10 9 10 10 10 9 9 9 8 6 5 5 5 4 4 3 3 3 4 4 4 5 6 8 8 8 8 9 10 11 11 13
9 9 9 9 9 9 9 10 10 10 9 9 9 9 9 9 9 8 8 7 6 5 5 4 3 2 2 2 2 2 3 3 3 3 4 5 5 7 8 9 9 10 11
8 8 7 7 8 9 9 9 9 9 9 8 8 8 8 7 7 7 7 7 5 5 5 4 3 2 2 2 2 2 2 2 2 2 3 4 4 5 6 7 8 9 10
6 7 7 7 8 9 9 9 9 9 8 8 8 8 7 7 7 7 7 6 5 5 5 4 3 2 3 2 2 1 1 2 2 3 3 4 4 5 6 7 8 8 9
6 7 7 7 7 8 8 8 8 8 9 8 8 8 8 7 7 7 6 5 5 5 5 4 4 3 3 2 1 1 2 2 3 3 4 5 5 6 6 7 8 9 9
5 6 6 6 6 7 7 8 8 8 9 9 9 8 8 8 7 7 6 5 4 4 4 4 5 4 3 2 2 1 2 2 3 4 5 6 6 7 7 8 8 8 9
4 5 5 6 6 6 6 7 8 8 9 9 9 9 8 8 8 7 6 5 4 4 4 4 4 4 4 3 3 2 3 3 3 3 4 5 6 6 6 6 7 8 9
4 4 5 5 5 5 6 7 8 9 9 9 9 8 8 8 8 7 6 5 5 4 4 4 4 4 4 4 4 4 4 4 4 4 5 5 4 5 6 6 7 8 9
4 5 5 5 5 5 5 6 7 8 8 8 8 8 8 8 8 7 7 6 5 5 5 4 4 4 4 4 5 5 5 5 5 5 6 6 6 6 7 8 9 9 10
5 5 6 6 5 6 6 6 7 8 8 8 8 8 8 7 7 7 6 6 6 5 5 5 5 5 5 5 6 6 6 7 7 7 7 7 8 8 9 10 10 11 12
5 5 6 6 6 6 6 7 7 7 8 8 8 8 8 8 7 8 7 7 7 6 6 6 5 5 5 6 6 7 7 8 8 9 9 9 10 10 11 12 13 13 14
6 6 5 6 7 7 7 7 8 8 8 8 9 9 9 8 8 8 8 7 7 7 7 7 7 7 7 7 8 8 8 8 9 10 11 11 12 13 13 14 15 15 16
6 7 7 7 7 8 8 8 8 8 9 9 9 10 10 9 9 9 8 8 8 8 8 9 9 9 9 9 9 10 10 11 11 12 12 13 14 15 15 16 17 18 18
7 7 7 8 8 8 8 8 9 9 10 10 10 11 11 10 10 10 10 10 10 10 11 12 12 12 12 12 12 12 13 13 14 15 15 16 17 18 18 19 20 20 21
7 7 8 8 8 8 8 9 10 10 11 11 11 11 12 12 12 12 12 12 12 12 13 14 14 15 15 15 15 15 16 17 17 18 18 19 19 19 20 20 21 22 23
7 8 8 8 9 9 9 10 11 11 12 12 13 13 13 13 13 13 13 13 13 14 14 15 16 16 17 17 17 18 19 19 20 20 21 21 21 22 22 22 23 24 25
8 8 8 9 10 10 11 12 12 13 13 13 14 14 14 14 14 14 14 15 16 17 17 17 18 19 19 20 20 21 21 22 23 23 24 24 24 24 25 25 26 27 27
8 9 9 10 11 12 12 13 13 14 14 14 14 15 15 15 15 16 17 17 18 18 19 19 20 20 21 21 22 23 23 24 25 25 26 26 27 28 28 28 29 29 30
9 10 11 12 12 13 14 14 15 15 15 16 16 16 17 17 18 19 19 20 20 20 21 21 22 23 23 24 24 25 25 26 27 27 27 28 28 30 31 31 32 33 33
Wind_Direction
295 295 295 294 293 295 297 298 301 300 301 302 301 301 300 297 295 290 287 284 282 281 278 274 271 268 265 263 261 262 262 263 260 258 257 257 257 257 258 258 257 255 256
293 294 296 295 293 295 298 300 302 302 303 305 306 304 303 301 299 296 292 289 285 282 278 275 272 268 265 264 262 262 262 262 261 258 256 256 256 255 257 258 254 254 254
292 293 295 295 296 299 302 303 303 304 304 306 307 308 307 304 303 301 299 294 288 281 278 277 275 270 266 265 266 264 261 260 258 256 254 254 254 254 255 254 251 250 251
292 293 294 294 298 301 304 306 307 306 306 307 308 311 310 308 308 307 306 300 291 285 282 279 277 272 268 265 265 263 260 260 257 255 253 251 251 251 251 249 249 248 249
295 295 296 298 299 303 305 306 308 308 310 311 313 315 313 311 311 313 313 311 304 293 284 279 276 273 272 269 265 262 260 259 257 254 250 250 249 249 249 247 248 248 248
304 304 305 302 301 305 308 308 311 314 316 316 317 324 321 318 319 321 324 320 314 303 293 287 280 278 274 272 269 265 263 260 256 249 250 251 249 248 247 248 250 247 250
309 310 306 307 308 310 312 317 321 321 321 321 322 329 330 326 328 329 328 326 323 318 306 299 292 288 281 273 266 264 258 255 253 249 252 253 250 244 244 246 249 249 247
309 313 313 311 312 313 318 320 324 325 320 322 323 325 330 331 329 332 335 337 339 339 333 314 295 296 290 275 271 267 253 248 249 249 250 251 248 243 245 247 249 247 243
312 314 318 317 318 323 325 324 323 323 323 326 325 327 331 330 331 334 341 343 346 352 348 339 328 327 323 305 292 278 261 256 242 241 243 247 253 247 245 248 248 245 245
314 317 318 322 324 329 332 330 329 331 331 328 329 333 332 331 335 342 343 346 357 3 1 357 354 344 335 328 322 301 262 249 240 236 242 249 257 262 254 251 251 251 252
318 321 322 323 325 332 335 336 337 338 339 338 337 334 334 335 339 344 350 358 1 359 359 357 348 341 344 343 335 317 267 251 246 243 244 253 260 264 260 254 254 255 256
328 330 330 330 335 343 348 350 350 348 347 345 343 341 337 334 335 337 342 349 351 354 360 2 359 348 338 335 336 326 293 265 257 254 254 260 262 264 264 264 262 262 262
334 340 343 341 341 345 350 354 355 356 358 358 353 347 345 339 333 331 335 339 344 347 351 358 0 358 352 348 344 339 325 299 285 274 268 267 265 262 263 267 266 266 267
338 347 353 354 354 357 1 3 3 2 0 1 358 354 354 356 351 345 342 340 342 342 341 346 350 354 355 347 337 336 342 334 322 301 292 279 269 267 266 267 270 269 268
346 351 356 355 358 1 6 6 6 7 6 5 3 6 6 3 3 1 357 355 356 358 356 355 352 351 346 343 340 338 332 327 315 303 299 296 288 284 280 282 284 278 276
3 356 0 10 10 4 2 2 1 2 3 4 8 9 9 8 7 5 1 2 6 5 357 353 351 346 339 332 324 319 314 309 306 303 299 294 287 285 286 286 288 287 288
7 2 4 6 4 1 360 357 355 356 358 359 360 359 359 359 360 357 353 353 354 356 356 352 343 334 331 327 321 317 310 303 298 296 295 291 287 288 289 291 292 292 292
6 3 8 11 6 359 355 355 354 351 351 353 355 355 354 353 352 351 347 343 342 341 339 336 331 324 320 320 318 316 312 305 297 292 291 289 289 291 292 292 293 294 292
16 12 4 1 0 359 357 355 353 351 351 353 354 353 352 351 349 348 347 343 339 337 334 329 324 321 313 309 309 307 305 303 301 296 291 289 290 290 291 292 293 293 292
23 21 14 2 358 359 358 356 354 353 351 347 345 343 342 342 341 339 337 337 334 331 328 323 318 314 309 306 305 303 300 297 297 297 294 292 292 293 294 294 294 292 290
23 20 14 8 3 359 356 354 352 349 346 344 341 338 335 332 328 324 322 322 320 317 316 314 312 311 306 303 301 300 300 298 297 296 294 291 290 290 291 291 292 293 293
17 12 8 5 1 357 354 350 346 343 341 338 335 332 329 326 324 323 321 319 318 317 314 311 307 303 301 301 300 298 297 296 295 295 295 293 291 291 291 291 291 292 292
11 7 4 1 357 352 348 344 341 337 335 334 332 330 327 323 319 317 315 313 312 311 309 307 306 304 301 298 297 297 296 295 295 295 294 293 292 292 292 292 292 292 292
5 2 359 356 352 347 343 341 339 337 337 335 333 331 328 325 322 318 316 313 310 308 305 303 304 304 303 302 298 295 295 295 294 293 293 292 291 293 293 292 292 292 293
353 352 349 347 344 341 338 338 337 336 335 333 332 331 328 326 324 322 320 317 314 311 309 306 305 303 303 302 301 299 297 295 295 295 293 292 291 291 291 291 292 292 293
340 339 338 338 337 336 335 334 333 332 331 330 328 327 325 323 322 320 318 316 313 311 310 309 306 304 303 301 300 300 299 297 296 295 294 293 293 294 293 292 291 292 293
Height
5790 5786 5784 5781 5778 5776 5773 5771 5768 5765 5763 5760 5757 5754 5752 5749 5747 5746 5744 5742 5741 5739 5738 5737 5737 5737 5737 5738 5738 5739 5739 5740 5741 5742 5742 5744 5745 5747 5748 5750 5752 5754 5756
5784 5781 5779 5776 5773 5771 5769 5766 5763 5761 5758 5755 5752 5750 5748 5745 5743 5741 5738 5737 5735 5734 5733 5733 5732 5732 5732 5732 5733 5733 5733 5734 5734 5735 5736 5737 5738 5740 5742 5743 5745 5747 5749
5778 5776 5774 5771 5769 5767 5764 5762 5759 5757 5754 5751 5749 5746 5744 5741 5739 5736 5734 5732 5730 5729 5729 5728 5728 5727 5727 5727 5727 5728 5728 5728 5729 5730 5730 5732 5733 5734 5736 5737 5739 5741 5743
5774 5771 5769 5767 5765 5763 5760 5758 5755 5753 5750 5748 5745 5743 5740 5737 5735 5733 5731 5729 5727 5725 5725 5724 5724 5723 5723 5723 5723 5723 5723 5724 5724 5725 5726 5726 5728 5729 5730 5732 5733 5735 5737
5769 5767 5765 5763 5761 5759 5757 5755 5752 5750 5747 5745 5742 5739 5737 5734 5732 5729 5727 5725 5723 5722 5722 5721 5720 5720 5719 5719 5720 5720 5720 5720 5720 5721 5721 5722 5723 5724 5725 5727 5729 5730 5732
5766 5764 5762 5760 5758 5756 5754 5752 5749 5747 5744 5742 5740 5737 5734 5732 5729 5727 5725 5723 5721 5720 5719 5718 5717 5717 5717 5717 5717 5717 5717 5717 5718 5718 5719 5719 5720 5721 5722 5723 5725 5726 5728
5764 5762 5759 5757 5756 5753 5751 5749 5747 5744 5742 5740 5738 5735 5733 5730 5728 5725 5723 5721 5719 5718 5717 5716 5715 5715 5715 5714 5714 5714 5715 5715 5715 5716 5716 5716 5717 5718 5719 5720 5721 5723 5724
5761 5759 5757 5755 5753 5751 5749 5747 5745 5742 5740 5738 5736 5734 5732 5729 5727 5724 5722 5720 5718 5717 5716 5715 5714 5714 5714 5713 5713 5713 5714 5713 5713 5714 5714 5715 5715 5716 5717 5718 5719 5720 5721
5759 5757 5755 5754 5752 5750 5747 5745 5743 5741 5739 5737 5735 5733 5730 5728 5726 5724 5722 5720 5718 5717 5716 5715 5714 5713 5713 5713 5712 5712 5712 5712 5712 5713 5713 5713 5714 5715 5715 5716 5716 5717 5718
5757 5756 5754 5752 5750 5748 5746 5744 5742 5740 5738 5736 5734 5732 5730 5728 5725 5723 5721 5719 5718 5717 5716 5715 5714 5713 5713 5713 5712 5712 5712 5712 5712 5712 5713 5713 5713 5713 5713 5714 5714 5715 5716
5756 5754 5753 5751 5749 5747 5745 5743 5741 5739 5737 5735 5733 5731 5729 5727 5725 5723 5721 5720 5718 5717 5716 5715 5714 5714 5713 5712 5712 5712 5711 5711 5711 5712 5712 5712 5712 5712 5712 5712 5712 5713 5713
5755 5753 5752 5750 5748 5746 5744 5742 5740 5738 5736 5734 5732 5730 5728 5726 5725 5723 5721 5720 5719 5718 5716 5715 5714 5714 5713 5712 5712 5712 5711 5711 5711 5711 5711 5711 5711 5711 5711 5711 5710 5710 5711
5754 5752 5751 5749 5747 5746 5744 5742 5740 5738 5736 5734 5732 5729 5727 5725 5724 5722 5721 5720 5719 5718 5717 5716 5715 5714 5713 5712 5712 5711 5711 5711 5710 5710 5710 5710 5709 5709 5709 5709 5709 5708 5708
5753 5751 5750 5749 5747 5745 5744 5742 5740 5738 5736 5734 5732 5729 5727 5725 5724 5722 5721 5720 5719 5718 5717 5716 5715 5714 5713 5712 5712 5711 5711 5710 5709 5709 5709 5708 5708 5708 5707 5707 5707 5706 5706
5752 5751 5750 5748 5747 5745 5744 5742 5740 5738 5736 5734 5732 5730 5728 5726 5724 5722 5721 5720 5718 5717 5716 5716 5715 5714 5713 5712 5712 5711 5710 5710 5709 5708 5708 5707 5707 5706 5706 5705 5705 5704 5703
5752 5751 5750 5748 5747 5746 5744 5742 5740 5739 5737 5735 5732 5730 5728 5726 5725 5723 5722 5720 5719 5718 5717 5716 5715 5714 5713 5712 5711 5711 5710 5709 5708 5708 5707 5706 5705 5705 5704 5703 5702 5701 5700
5752 5751 5750 5748 5747 5745 5744 5742 5741 5739 5737 5735 5733 5731 5729 5727 5725 5724 5722 5721 5719 5718 5717 5716 5715 5714 5713 5712 5711 5710 5709 5708 5707 5706 5705 5704 5703 5702 5701 5700 5699 5698 5697
5753 5751 5750 5748 5747 5745 5744 5742 5740 5738 5736 5735 5733 5731 5729 5727 5725 5724 5722 5721 5719 5718 5717 5715 5714 5713 5712 5711 5710 5708 5707 5706 5705 5704 5703 5702 5701 5700 5699 5697 5696 5695 5693
5753 5751 5750 5749 5747 5745 5743 5742 5740 5738 5736 5734 5732 5730 5728 5727 5725 5723 5721 5720 5718 5717 5716 5714 5713 5712 5710 5709 5708 5707 5705 5704 5703 5701 5700 5699 5698 5696 5695 5693 5692 5690 5689
5753 5751 5750 5749 5747 5745 5743 5741 5740 5738 5736 5734 5732 5730 5728 5726 5724 5722 5721 5719 5718 5716 5715 5713 5712 5710 5708 5707 5706 5704 5703 5701 5700 5698 5697 5695 5694 5692 5691 5689 5687 5685 5683
5753 5752 5750 5748 5746 5745 5743 5741 5739 5737 5735 5733 5731 5729 5727 5725 5723 5721 5719 5717 5716 5714 5713 5711 5709 5707 5706 5704 5702 5701 5699 5697 5696 5694 5693 5691 5689 5687 5686 5684 5682 5680 5677
5753 5752 5750 5748 5746 5744 5742 5740 5738 5736 5734 5732 5729 5727 5725 5723 5721 5719 5717 5715 5713 5712 5710 5708 5706 5704 5702 5700 5698 5697 5695 5693 5691 5689 5687 5686 5683 5682 5680 5678 5675 5673 5671
5753 5751 5750 5748 5746 5744 5742 5740 5737 5735 5732 5730 5727 5725 5723 5720 5718 5716 5714 5712 5710 5708 5706 5704 5702 5700 5698 5696 5694 5692 5690 5688 5686 5684 5682 5680 5677 5675 5673 5671 5669 5666 5664
5753 5751 5749 5747 5745 5743 5741 5738 5736 5733 5731 5728 5725 5723 5720 5718 5715 5713 5711 5709 5707 5704 5702 5700 5697 5695 5693 5690 5688 5686 5684 5681 5679 5677 5675 5673 5670 5668 5666 5663 5661 5658 5656
5752 5750 5748 5746 5744 5742 5739 5737 5734 5731 5729 5726 5723 5720 5718 5715 5712 5710 5707 5705 5702 5700 5697 5695 5692 5690 5687 5685 5682 5680 5677 5675 5672 5669 5667 5665 5662 5660 5657 5655 5652 5650 5647
5751 5750 5747 5745 5743 5740 5737 5735 5732 5729 5726 5724 5721 5718 5715 5712 5709 5706 5703 5700 5697 5695 5692 5689 5686 5684 5681 5678 5675 5673 5670 5667 5664 5661 5658 5656 5653 5651 5648 5645 5642 5640 5637